Location: Tel Aviv
(32.0670°N, 34.7670°E)
Time: 05:59:18
(UTC+02:00)

CAS-4A - Visible Passes

Search period start: 23 March 2023 00:00
Search period end: 02 April 2023 01:00
Orbit: 510 x 527 km, 43.0° (Epoch: 22 March)

Date Brightness Start Highest point End Pass type
(mag) Time Alt. Az. Time Alt. Az. Time Alt. Az.
23 Mar ? 05:14:52 10° SW 05:18:42 45° SE 05:22:34 10° ENE visible
24 Mar ? 05:58:38 10° SW 06:02:32 55° SE 06:06:29 10° ENE visible
25 Mar ? 05:43:07 15° SW 05:46:22 66° SE 05:50:22 10° ENE visible
26 Mar ? 05:28:02 26° SW 05:30:10 79° SSE 05:34:12 10° ENE visible
27 Mar ? 05:12:49 46° WSW 05:13:58 87° NNW 05:17:59 10° ENE visible
28 Mar ? 04:57:29 71° WNW 04:57:44 74° NNW 05:01:45 10° NE visible
29 Mar ? 04:42:03 55° NNE 04:42:03 55° NNE 04:45:29 10° NE visible
30 Mar ? 04:26:32 36° NNE 04:26:32 36° NNE 04:29:11 10° NE visible
30 Mar ? 06:02:36 10° WNW 06:05:34 19° N 06:08:32 10° NE visible
31 Mar ? 04:10:56 25° NE 04:10:56 25° NE 04:12:51 10° NE visible
31 Mar ? 05:46:29 10° NW 05:49:22 19° N 05:52:14 10° NE visible
01 Apr ? 03:55:16 18° NE 03:55:16 18° NE 03:56:29 10° NE visible
01 Apr ? 05:30:21 10° NW 05:33:08 18° N 05:35:56 10° NE visible
